AXB1365 VOBL-VOCL

Flight info

Callsign AXB1365
Flight time 0h 52m
Altitude 28000
Route AKTIM7B AKTIM W118 CCB J16 CLC
Aircraft A320/M-SDE3FGHIRWY/LB1

Departure

Time 2026-05-05 08:04
Airport Kempegowda International Airport Bengaluru (VOBL)

Arrival

Time 2026-05-05 08:56
Airport Calicut International Airport (VOCL)
Time Latitude Longitude Altitude Speed Heading
2026-05-05 07:45 13.20080 77.72020 3015 ft 0 kts 234°
2026-05-05 07:54 13.20082 77.72023 3011 ft 2 kts 234°
2026-05-05 07:54 13.20093 77.72038 3014 ft 3 kts 236°
2026-05-05 07:54 13.20104 77.72056 3011 ft 3 kts 239°
2026-05-05 07:55 13.20114 77.72074 3015 ft 3 kts 244°
2026-05-05 07:55 13.20122 77.72092 3013 ft 3 kts 261°
2026-05-05 07:55 13.20122 77.72109 3011 ft 3 kts 322°
2026-05-05 07:55 13.20119 77.72112 3011 ft 0 kts
2026-05-05 07:59 13.20134 77.72112 3014 ft 9 kts
2026-05-05 08:00 13.20209 77.72113 3011 ft 11 kts
2026-05-05 08:00 13.20285 77.72113 3011 ft 11 kts
2026-05-05 08:00 13.20359 77.72114 3011 ft 11 kts
2026-05-05 08:00 13.20427 77.72125 3011 ft 9 kts 46°
2026-05-05 08:01 13.20435 77.72183 3011 ft 7 kts 90°
2026-05-05 08:01 13.20435 77.72234 3011 ft 7 kts 90°
2026-05-05 08:01 13.20451 77.72275 3013 ft 6 kts 44°
2026-05-05 08:01 13.20482 77.72285 3011 ft 4 kts
2026-05-05 08:02 13.20529 77.72285 3011 ft 7 kts
2026-05-05 08:02 13.20567 77.72285 3011 ft 5 kts
2026-05-05 08:02 13.20613 77.72285 3011 ft 15 kts
2026-05-05 08:02 13.20690 77.72203 3011 ft 18 kts 277°
2026-05-05 08:03 13.20690 77.72023 3011 ft 48 kts 270°
2026-05-05 08:03 13.20694 77.71687 3012 ft 92 kts 270°
2026-05-05 08:03 13.20705 77.70456 3011 ft 161 kts 270°
2026-05-05 08:03 13.20718 77.69642 3147 ft 176 kts 272°
2026-05-05 08:04 13.20948 77.68055 4236 ft 168 kts 293°
2026-05-05 08:04 13.21488 77.66973 4636 ft 181 kts 305°
2026-05-05 08:04 13.22204 77.65814 4876 ft 203 kts 304°
2026-05-05 08:04 13.22721 77.64953 4981 ft 218 kts 303°
2026-05-05 08:05 13.23849 77.63057 5239 ft 251 kts 303°
2026-05-05 08:05 13.24480 77.61989 5485 ft 267 kts 302°
2026-05-05 08:05 13.25455 77.60325 6168 ft 275 kts 302°
2026-05-05 08:05 13.26436 77.58637 6952 ft 278 kts 302°
2026-05-05 08:06 13.27436 77.56912 7698 ft 283 kts 302°
2026-05-05 08:06 13.28444 77.55173 8399 ft 289 kts 302°
2026-05-05 08:06 13.29207 77.53225 9097 ft 298 kts 279°
2026-05-05 08:06 13.29050 77.51094 9801 ft 306 kts 251°
2026-05-05 08:07 13.27939 77.49205 10240 ft 320 kts 223°
2026-05-05 08:07 13.26068 77.47852 10435 ft 341 kts 209°
2026-05-05 08:07 13.23944 77.46592 10580 ft 364 kts 208°
2026-05-05 08:07 13.21702 77.45307 10772 ft 382 kts 208°
2026-05-05 08:08 13.19311 77.44062 10963 ft 386 kts 199°
2026-05-05 08:08 13.16713 77.43448 10986 ft 384 kts 182°
2026-05-05 08:08 13.14044 77.43656 10992 ft 380 kts 164°
2026-05-05 08:08 13.11648 77.44673 10997 ft 377 kts 146°
2026-05-05 08:09 13.09644 77.46425 11023 ft 375 kts 127°
2026-05-05 08:09 13.08147 77.48622 11615 ft 377 kts 122°
2026-05-05 08:09 13.06678 77.50821 12247 ft 380 kts 123°
2026-05-05 08:09 13.05137 77.53085 12891 ft 384 kts 123°
2026-05-05 08:10 13.03597 77.55337 13502 ft 387 kts 124°
2026-05-05 08:10 13.02046 77.57614 14052 ft 391 kts 123°
2026-05-05 08:10 13.00490 77.59910 14576 ft 394 kts 124°
2026-05-05 08:10 12.98940 77.62202 15051 ft 398 kts 125°
2026-05-05 08:11 12.97079 77.64360 15507 ft 402 kts 138°
2026-05-05 08:11 12.94786 77.66019 15958 ft 406 kts 152°
2026-05-05 08:11 12.92169 77.67094 16425 ft 408 kts 166°
2026-05-05 08:11 12.89353 77.67518 16919 ft 409 kts 179°
2026-05-05 08:12 12.86510 77.67353 17393 ft 411 kts 186°
2026-05-05 08:12 12.83688 77.67098 17850 ft 413 kts 186°
2026-05-05 08:12 12.80780 77.66835 18291 ft 416 kts 186°
2026-05-05 08:12 12.77891 77.66576 18667 ft 418 kts 186°
2026-05-05 08:13 12.74985 77.66317 19043 ft 420 kts 186°
2026-05-05 08:13 12.72108 77.66062 19424 ft 422 kts 186°
2026-05-05 08:13 12.69134 77.65798 19795 ft 424 kts 186°
2026-05-05 08:13 12.66220 77.65540 20153 ft 427 kts 186°
2026-05-05 08:14 12.63254 77.65277 20523 ft 429 kts 186°
2026-05-05 08:14 12.60277 77.65014 20878 ft 431 kts 186°
2026-05-05 08:14 12.57276 77.64751 21224 ft 434 kts 186°
2026-05-05 08:14 12.54260 77.64485 21575 ft 436 kts 186°
2026-05-05 08:15 12.51234 77.64174 21915 ft 438 kts 187°
2026-05-05 08:15 12.48203 77.63800 22247 ft 440 kts 188°
2026-05-05 08:15 12.45162 77.63386 22572 ft 443 kts 188°
2026-05-05 08:15 12.42101 77.62955 22886 ft 445 kts 188°
2026-05-05 08:16 12.39029 77.62527 23194 ft 447 kts 188°
2026-05-05 08:16 12.35939 77.62109 23498 ft 449 kts 188°
2026-05-05 08:16 12.32826 77.61699 23748 ft 451 kts 188°
2026-05-05 08:16 12.29705 77.61297 23987 ft 453 kts 188°
2026-05-05 08:17 12.26570 77.60901 24229 ft 455 kts 187°
2026-05-05 08:17 12.23431 77.60506 24471 ft 456 kts 187°
2026-05-05 08:17 12.20270 77.60105 24710 ft 458 kts 187°
2026-05-05 08:17 12.17098 77.59698 24944 ft 460 kts 188°
2026-05-05 08:18 12.13922 77.59285 25176 ft 461 kts 188°
2026-05-05 08:18 12.10728 77.58867 25402 ft 463 kts 188°
2026-05-05 08:18 12.07549 77.58339 25624 ft 464 kts 194°
2026-05-05 08:18 12.04468 77.57335 25845 ft 465 kts 202°
2026-05-05 08:19 12.01552 77.55894 26061 ft 467 kts 207°
2026-05-05 08:19 11.98661 77.54377 26278 ft 468 kts 207°
2026-05-05 08:19 11.95756 77.52859 26487 ft 470 kts 207°
2026-05-05 08:19 11.92842 77.51340 26708 ft 471 kts 207°
2026-05-05 08:20 11.89918 77.49819 26918 ft 473 kts 207°
2026-05-05 08:20 11.86986 77.48293 27165 ft 473 kts 207°
2026-05-05 08:20 11.84052 77.46767 27488 ft 472 kts 207°
2026-05-05 08:20 11.81132 77.45248 27802 ft 471 kts 207°
2026-05-05 08:21 11.78210 77.43727 27907 ft 472 kts 207°
2026-05-05 08:21 11.75277 77.42201 27924 ft 473 kts 207°
2026-05-05 08:21 11.72351 77.40676 27920 ft 473 kts 207°
2026-05-05 08:21 11.69422 77.39150 27920 ft 473 kts 207°
2026-05-05 08:22 11.66495 77.37625 27921 ft 473 kts 207°
2026-05-05 08:22 11.63568 77.36099 27917 ft 473 kts 207°
2026-05-05 08:22 11.60633 77.34570 27917 ft 473 kts 207°
2026-05-05 08:22 11.57699 77.33040 27915 ft 473 kts 207°
2026-05-05 08:23 11.54769 77.31515 27914 ft 473 kts 207°
2026-05-05 08:23 11.51835 77.29991 27911 ft 473 kts 207°
2026-05-05 08:23 11.48899 77.28468 27908 ft 473 kts 207°
2026-05-05 08:23 11.45969 77.26951 27898 ft 473 kts 207°
2026-05-05 08:24 11.43040 77.25432 27895 ft 473 kts 207°
2026-05-05 08:24 11.40111 77.23909 27891 ft 473 kts 207°
2026-05-05 08:24 11.37180 77.22385 27888 ft 472 kts 207°
2026-05-05 08:24 11.34252 77.20865 27885 ft 472 kts 207°
2026-05-05 08:25 11.31540 77.19461 27887 ft 472 kts 207°
2026-05-05 08:25 11.28808 77.18046 27890 ft 472 kts 207°
2026-05-05 08:25 11.25875 77.16527 27891 ft 472 kts 207°
2026-05-05 08:25 11.22948 77.15014 27893 ft 472 kts 207°
2026-05-05 08:26 11.20012 77.13499 27901 ft 472 kts 206°
2026-05-05 08:26 11.17083 77.11989 27906 ft 473 kts 207°
2026-05-05 08:26 11.14148 77.10472 27902 ft 473 kts 207°
2026-05-05 08:26 11.11246 77.08908 27896 ft 473 kts 212°
2026-05-05 08:27 11.08668 77.06835 27669 ft 473 kts 225°
2026-05-05 08:27 11.06639 77.04198 27423 ft 474 kts 238°
2026-05-05 08:27 11.05216 77.01173 27179 ft 476 kts 250°
2026-05-05 08:27 11.04421 76.97902 26939 ft 477 kts 261°
2026-05-05 08:28 11.04303 76.94529 26705 ft 479 kts 273°
2026-05-05 08:28 11.04592 76.91190 26469 ft 480 kts 274°
2026-05-05 08:28 11.04909 76.87760 26230 ft 481 kts 274°
2026-05-05 08:28 11.05224 76.84413 26002 ft 481 kts 274°
2026-05-05 08:29 11.05546 76.81024 25771 ft 481 kts 274°
2026-05-05 08:29 11.05867 76.77644 25101 ft 480 kts 274°
2026-05-05 08:29 11.06184 76.74250 23970 ft 481 kts 274°
2026-05-05 08:30 11.06801 76.67643 21587 ft 457 kts 274°
2026-05-05 08:30 11.07098 76.64477 20763 ft 445 kts 274°
2026-05-05 08:30 11.07389 76.61353 19934 ft 445 kts 274°
2026-05-05 08:30 11.07680 76.58200 19119 ft 445 kts 274°
2026-05-05 08:31 11.07967 76.55070 18316 ft 445 kts 274°
2026-05-05 08:31 11.08256 76.51937 17456 ft 444 kts 274°
2026-05-05 08:31 11.08542 76.48855 17177 ft 429 kts 274°
2026-05-05 08:31 11.08819 76.45895 17048 ft 411 kts 274°
2026-05-05 08:32 11.08997 76.43999 16957 ft 401 kts 274°
2026-05-05 08:32 11.09243 76.41381 16841 ft 387 kts 274°
2026-05-05 08:32 11.09490 76.38696 16644 ft 376 kts 274°
2026-05-05 08:32 11.09728 76.36066 16271 ft 371 kts 274°
2026-05-05 08:33 11.09692 76.33483 16025 ft 360 kts 258°
2026-05-05 08:33 11.08810 76.31169 15903 ft 347 kts 237°
2026-05-05 08:33 11.07195 76.29419 15780 ft 336 kts 214°
2026-05-05 08:33 11.05099 76.28468 15651 ft 327 kts 192°
2026-05-05 08:34 11.02869 76.28443 15533 ft 320 kts 168°
2026-05-05 08:34 11.00788 76.29151 15408 ft 312 kts 159°
2026-05-05 08:34 10.98806 76.29975 15286 ft 304 kts 159°
2026-05-05 08:34 10.96867 76.30792 15082 ft 300 kts 159°
2026-05-05 08:35 10.94875 76.31330 14843 ft 295 kts 179°
2026-05-05 08:35 10.92893 76.30977 14612 ft 289 kts 205°
2026-05-05 08:35 10.91296 76.29794 14385 ft 285 kts 230°
2026-05-05 08:35 10.90307 76.28077 14151 ft 281 kts 253°
2026-05-05 08:36 10.90052 76.26150 13928 ft 278 kts 275°
2026-05-05 08:36 10.90543 76.24272 13656 ft 277 kts 297°
2026-05-05 08:36 10.91711 76.22717 13173 ft 280 kts 321°
2026-05-05 08:36 10.93402 76.21736 12691 ft 283 kts 341°
2026-05-05 08:37 10.95252 76.21066 12379 ft 281 kts 342°
2026-05-05 08:37 10.97077 76.20396 12074 ft 278 kts 342°
2026-05-05 08:37 10.98886 76.19726 11758 ft 276 kts 342°
2026-05-05 08:37 11.00678 76.19060 11395 ft 271 kts 342°
2026-05-05 08:38 11.02440 76.18401 10919 ft 268 kts 342°
2026-05-05 08:38 11.04177 76.17755 10445 ft 264 kts 342°
2026-05-05 08:38 11.05885 76.17121 9990 ft 260 kts 342°
2026-05-05 08:38 11.07580 76.16491 9439 ft 260 kts 343°
2026-05-05 08:39 11.09181 76.15612 8826 ft 266 kts 317°
2026-05-05 08:39 11.10098 76.13999 8418 ft 268 kts 287°
2026-05-05 08:39 11.10487 76.12142 7899 ft 269 kts 283°
2026-05-05 08:39 11.10837 76.10286 7557 ft 265 kts 283°
2026-05-05 08:40 11.11177 76.08449 6866 ft 264 kts 283°
2026-05-05 08:40 11.11478 76.06567 5750 ft 275 kts 281°
2026-05-05 08:40 11.11775 76.04597 4611 ft 285 kts 282°
2026-05-05 08:40 11.12140 76.02627 3742 ft 280 kts 283°
2026-05-05 08:41 11.12498 76.00660 2084 ft 295 kts 280°
2026-05-05 08:41 11.12970 75.98664 1105 ft 287 kts 284°
2026-05-05 08:41 11.13381 75.96710 460 ft 266 kts 281°
2026-05-05 08:41 11.13757 75.94901 1021 ft 274 kts 282°
2026-05-05 08:42 11.14123 75.92920 1805 ft 294 kts 281°
2026-05-05 08:42 11.14481 75.90905 2606 ft 270 kts 281°
2026-05-05 08:42 11.14765 75.89193 3340 ft 228 kts 280°
2026-05-05 08:42 11.14713 75.87545 3847 ft 248 kts 252°
2026-05-05 08:43 11.13730 75.86136 3971 ft 247 kts 216°
2026-05-05 08:43 11.12159 75.85557 3999 ft 241 kts 187°
2026-05-05 08:43 11.10488 75.85531 4004 ft 241 kts 173°
2026-05-05 08:43 11.08863 75.85915 4004 ft 241 kts 157°
2026-05-05 08:44 11.07445 75.86792 4004 ft 239 kts 135°
2026-05-05 08:44 11.06458 75.88129 4004 ft 236 kts 112°
2026-05-05 08:44 11.06054 75.89734 4004 ft 235 kts 90°
2026-05-05 08:44 11.06264 75.91361 4006 ft 232 kts 69°
2026-05-05 08:45 11.07042 75.92787 4007 ft 231 kts 47°
2026-05-05 08:45 11.08267 75.93818 4008 ft 229 kts 26°
2026-05-05 08:45 11.09749 75.94397 4011 ft 229 kts 17°
2026-05-05 08:45 11.11254 75.94930 4004 ft 230 kts 24°
2026-05-05 08:46 11.12509 75.95920 4007 ft 231 kts 51°
2026-05-05 08:46 11.13156 75.97406 4004 ft 234 kts 81°
2026-05-05 08:46 11.13264 75.99070 4020 ft 236 kts 86°
2026-05-05 08:46 11.13346 76.00740 4006 ft 236 kts 86°
2026-05-05 08:47 11.13429 76.02412 4004 ft 236 kts 86°
2026-05-05 08:47 11.13510 76.04073 3994 ft 235 kts 86°
2026-05-05 08:47 11.13593 76.05731 3758 ft 234 kts 86°
2026-05-05 08:47 11.13679 76.07385 3470 ft 235 kts 86°
2026-05-05 08:48 11.13763 76.09050 3193 ft 236 kts 86°
2026-05-05 08:48 11.13846 76.10710 3098 ft 235 kts 86°
2026-05-05 08:48 11.13931 76.12382 3000 ft 235 kts 86°
2026-05-05 08:48 11.13960 76.13996 2993 ft 222 kts 97°
2026-05-05 08:49 11.13465 76.15445 2998 ft 216 kts 124°
2026-05-05 08:49 11.12451 76.16478 3026 ft 198 kts 149°
2026-05-05 08:49 11.11228 76.16956 2999 ft 180 kts 173°
2026-05-05 08:49 11.10042 76.16925 2996 ft 165 kts 195°
2026-05-05 08:50 11.09018 76.16512 3030 ft 154 kts 214°
2026-05-05 08:50 11.08249 76.15803 2999 ft 147 kts 240°
2026-05-05 08:50 11.07993 76.14834 2996 ft 144 kts 275°
2026-05-05 08:50 11.08417 76.13945 2986 ft 143 kts 320°
2026-05-05 08:51 11.08957 76.13551 3031 ft 146 kts 318°
2026-05-05 08:51 11.09616 76.12779 3015 ft 144 kts 309°
2026-05-05 08:51 11.10145 76.11925 3008 ft 143 kts 294°
2026-05-05 08:51 11.10596 76.10675 2992 ft 143 kts 286°
2026-05-05 08:52 11.10772 76.10015 2907 ft 143 kts 284°
2026-05-05 08:52 11.11000 76.09030 2761 ft 142 kts 282°
2026-05-05 08:52 11.11204 76.08054 2591 ft 141 kts 282°
2026-05-05 08:52 11.11398 76.07082 2401 ft 140 kts 282°
2026-05-05 08:53 11.11586 76.06119 2217 ft 138 kts 281°
2026-05-05 08:53 11.11772 76.05155 2027 ft 139 kts 282°
2026-05-05 08:53 11.11957 76.04191 1842 ft 139 kts 281°
2026-05-05 08:53 11.12140 76.03232 1664 ft 138 kts 279°
2026-05-05 08:54 11.12323 76.02271 1455 ft 138 kts 279°
2026-05-05 08:54 11.12504 76.01318 1282 ft 136 kts 281°
2026-05-05 08:54 11.12685 76.00371 1117 ft 138 kts 278°
2026-05-05 08:54 11.12868 75.99407 920 ft 140 kts 279°
2026-05-05 08:55 11.13045 75.98455 726 ft 135 kts 279°
2026-05-05 08:55 11.13227 75.97516 534 ft 136 kts 280°
2026-05-05 08:55 11.13420 75.96532 385 ft 136 kts 281°
2026-05-05 08:55 11.13587 75.95696 412 ft 108 kts 281°
2026-05-05 08:56 11.13686 75.95090 406 ft 67 kts 281°
2026-05-05 08:56 11.13758 75.94727 404 ft 39 kts 281°
2026-05-05 08:56 11.13783 75.94511 400 ft 28 kts 276°
2026-05-05 08:56 11.13791 75.94329 400 ft 25 kts 276°
2026-05-05 08:57 11.13819 75.94278 400 ft 1 kts 349°
2026-05-05 08:57 11.13821 75.94278 400 ft 0 kts 352°
2026-05-05 08:57 11.13839 75.94293 396 ft 9 kts 65°
2026-05-05 08:57 11.13829 75.94353 400 ft 9 kts 102°
2026-05-05 08:58 11.13815 75.94424 396 ft 11 kts 101°
2026-05-05 08:58 11.13799 75.94516 393 ft 15 kts 101°
2026-05-05 08:58 11.13778 75.94627 401 ft 17 kts 102°
2026-05-05 08:58 11.13755 75.94747 401 ft 17 kts 98°
2026-05-05 08:59 11.13734 75.94875 405 ft 20 kts 99°
2026-05-05 08:59 11.13785 75.94971 404 ft 16 kts 18°
2026-05-05 08:59 11.13823 75.95050 404 ft 14 kts 100°
2026-05-05 08:59 11.13837 75.95113 402 ft 8 kts 21°
2026-05-05 09:00 11.13874 75.95122 404 ft 5 kts
2026-05-05 09:00 11.13876 75.95122 404 ft 1 kts
2026-05-05 09:00 11.13881 75.95123 404 ft 1 kts
2026-05-05 09:00 11.13882 75.95123 404 ft 0 kts